Location: Oberwangen
(47.4286°N, 8.9679°E)
Time: 09:29:53
(UTC+00:00)

USA 267 - Pass Details

Date: 20 June 2021
Orbit: 1102 x 1106 km, 123.0° (Epoch: 03 August)

Event Time Altitude Azimuth Distance (km) Brightness Sun altitude
Rises 21:02:34 0° 86° (E) 3,919 5.9 -12.1°
Reaches altitude 10° 21:05:10 10° 80° (E) 2,963 5.3 -12.4°
Maximum altitude 21:11:14 43° 12° (NNE) 1,514 4.4 -12.9°
Drops below altitude 10° 21:17:18 10° 304° (NW) 2,969 6.6 -13.5°
Sets 21:19:55 0° 298° (WNW) 3,928 7.2 -13.7°
